CW4299 Weather Reports


Display with metric or nautical units.
time (UTC)temp
F
wind
direction
speed
MPH
gust
MPH
rain 1hr
in
rain 24hr
in
rain mn
in
humidity
%
barometer
mb
20210619113010 0 0.0 0.0 0.00 0.00 0.00 1018.4
20210619111507 0 0.0 0.0 0.00 0.00 0.00 1018.4
20210619110124 0 0.0 0.0 0.00 0.00 0.00 1018.2
20210619104706 0 0.0 0.0 0.00 0.00 0.00 1018.0
20210619103211 0 0.0 0.0 0.00 0.00 0.00 1017.8
20210619101657 0 0.0 0.0 0.00 0.00 0.00 1017.5
20210619100114 0 0.0 0.0 0.00 0.00 0.00 1017.3
20210619094544 0 0.0 0.0 0.00 0.00 0.00 1017.3
20210619093100 0 0.0 0.0 0.00 0.00 0.00 1017.3
20210619091637 0 0.0 0.0 0.00 0.00 0.00 1017.0
20210619090031 0 0.0 0.0 0.00 0.00 0.00 1017.0
20210619084528 0 0.0 0.0 0.00 0.00 0.00 1017.1
20210619083029 0 0.0 0.0 0.00 0.00 0.00 1017.2
20210619081516 0 0.0 0.0 0.00 0.00 0.00 1017.2
20210619080034 0 0.0 0.0 0.00 0.00 0.00 1017.4
20210619074525 0 0.0 0.0 0.00 0.00 0.00 1017.3
20210619073139 0 0.0 0.0 0.00 0.00 0.00 1017.4
20210619071606 0 0.0 0.0 0.00 0.00 0.00 1017.4
20210619070141 0 0.0 0.0 0.00 0.00 0.00 1017.6
20210619064619 80 148 0.0 1.0 0.00 0.00 0.00 77 1017.7
20210619063108 81 110 0.0 3.0 0.00 0.00 0.00 78 1017.8
20210619061549 81 131 0.0 5.0 0.00 0.00 0.00 78 1018.1
20210619060048 81 99 0.0 4.0 0.00 0.00 0.00 78 1018.2
20210619054630 81 100 1.0 7.0 0.00 0.00 0.00 78 1018.3
20210619053044 81 112 0.0 4.0 0.00 0.00 0.00 79 1018.3
20210619051627 81 81 0.0 5.0 0.00 0.00 0.00 79 1018.4
20210619050052 81 100 0.0 6.0 0.00 0.00 0.00 79 1018.5
20210619044611 81 108 0.0 2.0 0.00 0.00 0.00 80 1018.5
20210619043211 81 104 0.0 0.0 0.00 0.00 0.00 79 1018.6
20210619041547 82 120 0.0 2.0 0.00 0.00 0.00 78 1018.5
20210619040122 82 100 0.0 0.0 0.00 0.00 0.00 77 1018.7
20210619034601 82 105 0.0 0.0 0.00 0.00 0.00 77 1018.7
20210619033123 82 105 0.0 0.0 0.00 0.00 0.00 76 1018.6
20210619031604 82 100 0.0 0.0 0.00 0.00 0.00 75 1018.7
20210619030039 83 95 0.0 0.0 0.00 0.00 0.00 74 1018.8
20210619024524 82 57 0.0 0.0 0.00 0.00 0.00 74 1018.7
20210619023029 83 109 0.0 0.0 0.00 0.00 0.00 74 1018.7
20210619021534 83 77 0.0 0.0 0.00 0.00 0.00 73 1018.6
20210619020026 83 72 0.0 0.0 0.00 0.00 0.00 71 1018.5
20210619014544 83 110 0.0 0.0 0.00 0.00 0.00 70 1018.3
20210619013027 83 70 0.0 0.0 0.00 0.00 0.00 70 1018.2
20210619011526 83 82 0.0 0.0 0.00 0.00 0.00 70 1018.1
20210619010025 83 78 0.0 0.0 0.00 0.00 0.00 70 1018.1
20210619004521 83 107 0.0 0.0 0.00 0.00 0.00 72 1018.0
20210619003026 84 82 0.0 0.0 0.00 0.00 0.00 71 1018.0
20210619001618 84 113 0.0 0.0 0.00 0.00 0.00 70 1018.0
20210619000049 84 113 0.0 0.0 0.00 0.00 0.00 68 1018.0
20210618234526 85 105 0.0 0.0 0.00 0.00 0.00 65 1018.0
20210618233023 85 143 0.0 0.0 0.00 0.00 0.00 65 1018.0
20210618231544 85 82 0.0 1.0 0.00 0.00 0.00 64 1018.0
20210618230025 85 93 0.0 0.0 0.00 0.00 0.00 64 1017.8
20210618224546 85 88 0.0 0.0 0.00 0.00 0.00 65 1017.7
20210618223018 85 71 0.0 0.0 0.00 0.00 0.00 62 1017.7
20210618221516 86 112 0.0 0.0 0.00 0.00 0.00 62 1017.8
20210618220041 86 88 0.0 0.0 0.00 0.00 0.00 62 1017.7
20210618214513 86 95 0.0 0.0 0.00 0.06 0.00 62 1017.9
20210618213032 86 115 0.0 0.0 0.00 0.06 0.00 61 1017.9
20210618211535 86 143 0.0 1.0 0.00 0.06 0.00 61 1018.0
20210618210022 86 146 0.0 4.0 0.00 0.06 0.00 61 1017.9
20210618204523 86 98 0.0 1.0 0.00 0.16 0.00 62 1017.8
20210618203028 86 72 0.0 1.0 0.00 0.16 0.00 61 1017.8
20210618201508 86 129 0.0 5.0 0.00 0.16 0.00 60 1017.9
20210618200018 86 124 0.0 0.0 0.00 0.16 0.00 60 1018.3
20210618194526 86 108 0.0 5.0 0.00 0.16 0.00 60 1018.4
20210618193005 86 139 0.0 1.0 0.00 0.16 0.00 61 1018.3
20210618191517 86 136 0.0 0.0 0.00 0.16 0.00 62 1018.3
20210618190002 86 110 0.0 1.0 0.00 0.16 0.00 65 1018.3
20210618183152 85 106 0.0 0.0 0.00 0.16 0.00 67 1018.5
20210618181612 84 105 0.0 0.0 0.00 0.16 0.00 68 1018.6
20210618174633 84 91 0.0 0.0 0.00 0.16 0.00 68 1018.8
20210618173217 84 109 0.0 8.0 0.00 0.16 0.00 70 1018.8
20210618171746 84 120 1.0 7.0 0.00 0.16 0.00 69 1018.7
20210618170203 84 84 0.0 5.0 0.00 0.16 0.00 69 1018.7
20210618164608 83 72 1.0 7.0 0.00 0.16 0.00 70 1018.7
20210618163107 83 58 0.0 7.0 0.00 0.16 0.00 72 1018.8
20210618161559 82 30 0.0 7.0 0.00 0.16 0.00 71 1019.0
20210618160151 82 102 0.0 2.0 0.00 0.16 0.00 72 1019.3
20210618154639 82 105 0.0 4.0 0.00 0.16 0.00 73 1019.6
20210618153058 82 107 0.0 0.0 0.00 0.16 0.00 73 1019.6
20210618151558 82 84 0.0 3.0 0.00 0.16 0.00 71 1019.6
20210618150123 82 81 0.0 3.0 0.00 0.16 0.00 71 1019.5
20210618144624 82 84 0.0 2.0 0.00 0.16 0.00 71 1019.4
20210618143049 81 77 0.0 3.0 0.00 0.16 0.00 72 1019.5
20210618141641 81 103 0.0 1.0 0.00 0.16 0.00 73 1019.5
20210618140035 80 96 0.0 0.0 0.00 0.16 0.00 76 1019.5
20210618134545 79 128 0.0 0.0 0.00 0.16 0.00 79 1019.5
20210618133103 79 97 0.0 0.0 0.00 0.16 0.00 79 1019.5
20210618131551 79 101 0.0 1.0 0.00 0.16 0.00 81 1019.4
20210618130023 79 106 0.0 0.0 0.00 0.16 0.00 81 1019.2
20210618124559 79 79 0.0 0.0 0.00 0.16 0.00 82 1019.2
20210618123057 78 89 0.0 0.0 0.00 0.16 0.00 82 1019.2
20210618121547 78 112 0.0 0.0 0.00 0.16 0.00 82 1019.1
20210618120016 78 95 0.0 0.0 0.00 0.16 0.00 83 1019.1
20210618114530 0 0.0 0.0 0.00 0.16 0.00 1018.9